Regional Weather Roundup
Issued by NWS

Home | Current Version | Previous Version | Graphics & Text | Print | Product List | Glossary On
Versions: 1 2 3 4 5 6 7 8 9 10 11 12 13 14 15 16 17 18 19 20 21 22 23 24 25 26 27 28 29 30 31 32 33 34 35 36 37 38 39 40 41 42 43 44 45 46 47 48 49 50
000
ASUS45 KTFX 220910
RWRMT
MONTANA REGIONAL WEATHER ROUNDUP
NATIONAL WEATHER SERVICE GREAT FALLS MT
300 AM MDT FRI MAY 22 2015

NOTE: "FAIR" INDICATES FEW OR NO CLOUDS BELOW 12000 FEET WITH NO
SIGNIFICANT WEATHER AND/OR OBSTRUCTIONS TO VISIBILITY.

MTZ001>007-043-221000-
WEST OF THE DIVIDE

CITY           SKY/WX    TMP DP  RH WIND       PRES   REMARKS
KALISPELL      SUNNY     45  36  70 CALM      29.91S
MISSOULA       CLEAR     46  41  82 N7        29.93S
BUTTE          CLEAR     37  35  92 CALM      29.99F
MULLAN PASS    CLEAR     50  37  61 S6        29.98F
DEER LODGE       N/A     41  39  93 CALM      30.01S
EUREKA           N/A     46  34  61 CALM      29.91S
HAMILTON         N/A     46  43  87 S3        29.93S
LIBBY            N/A     50  37  62 CALM      29.90S
RONAN            N/A     46  40  79 CALM      29.96S
$$

MTZ008-052>055-221000-
SOUTHWEST MONTANA

CITY           SKY/WX    TMP DP  RH WIND       PRES   REMARKS
BOZEMAN        CLEAR     42  39  89 S5        29.97S
DILLON         MOCLDY    46  42  86 NE5       29.96S
W YELLOWSTONE  CLOUDY    37  36  93 CALM      30.03S
THREE FORKS      N/A     43  -9  11 CALM      29.96S
TWIN BRIDGES     N/A     45  37  73 SE2       29.96S
$$

MTZ009-010-012-014-046-048-049-054-221000-
EAST SLOPES AND CENTRAL MONTANA

CITY           SKY/WX    TMP DP  RH WIND       PRES   REMARKS
CUT BANK       PTCLDY    47  29  49 E5        29.97F
GREAT FALLS    CLEAR     47  41  80 CALM      29.95S
MALMSTROM AFB  CLEAR     41  39  93 E6        29.95F
HELENA         CLEAR     47  43  86 W3        29.95F
CONRAD           N/A     39  36  89 NE2       29.99S
$$

MTZ011-013-016-021-045-047-050-051-221000-
NORTH CENTRAL MONTANA

CITY           SKY/WX    TMP DP  RH WIND       PRES   REMARKS
HAVRE          CLEAR     44  32  62 E9        29.99S
LEWISTOWN      CLEAR     48  38  68 E13       29.98F
N BAR RANCH    FAIR      45  37  76 NW3       30.04S
CHINOOK          N/A     45  34  65 E7        30.01F
FORT BENTON      N/A     52  36  54 NW5       29.96S
$$

MTZ017>020-022>027-061-062-221000-
NORTHEAST MONTANA

CITY           SKY/WX    TMP DP  RH WIND       PRES   REMARKS
GLASGOW        CLEAR     46  33  60 E13       30.05F
JORDAN           N/A     47  30  51 E9        30.03S
SIDNEY         CLEAR     43  36  75 CALM      30.12R
WOLF POINT     CLEAR     43  35  73 E5        30.09S
MALTA            N/A     49  32  52 NE6       30.00S
PLENTYWOOD       N/A     52  34  50 NE3       30.11F
POPLAR           N/A     45  37  76 N6        30.10S
$$

MTZ028>42-056>058-221000-
SOUTHCENTRAL AND SOUTHEAST MONTANA

CITY           SKY/WX    TMP DP  RH WIND       PRES   REMARKS
BAKER          CLEAR     39  30  70 E7        30.11F
BILLINGS       PTCLDY    48  41  76 N3        29.95F
LIVINGSTON     CLEAR     41  37  86 SW3       29.98S
MILES CITY     CLEAR     49  31  49 SE7       30.04F
BIG TIMBER       N/A     45  39  81 CALM      29.99S
FORSYTH          N/A     46  37  71 E7        30.00F
LAUREL           N/A     47  38  71 N3        29.94F
ROUNDUP          N/A     45  35  67 CALM      29.90F
$$

REGIONAL REPORTS...DAKOTAS

CITY           SKY/WX    TMP DP  RH WIND       PRES   REMARKS
WILLISTON      CLEAR     42  36  79 CALM      30.11S
MINOT          CLEAR     52  34  50 S5        30.12F
DICKINSON      CLEAR     40  31  70 S3        30.11S
BEACH          PTSUNNY   39  32  75 S6        30.12S
CROSBY         FAIR      48  37  66 S9        30.13R
WATFORD CITY   FAIR      41  32  70 CALM      30.11S
BISMARCK       CLEAR     47  41  80 NE7       30.15R
GRAND FORKS    CLEAR     41  37  86 SW3       30.15R
FARGO          CLEAR     44  40  85 CALM      30.16R
BUFFALO SD       N/A     44  30  57 E12       30.03F
RAPID CITY     CLOUDY    49  45  86 SE5       30.10S
$$

REGIONAL REPORTS...WYOMING/IDAHO/WASHINGTON

CITY           SKY/WX    TMP DP  RH WIND       PRES   REMARKS
GILLETTE       MOCLDY    46  42  86 S6        30.03S
SHERIDAN       PTCLDY    47  42  83 S12       29.98S
BUFFALO WY     MOCLDY    44  42  93 S9        30.01F
CODY           CLOUDY    48  41  76 SW10      29.97S
YELLOWSTONE LA   N/A     35  32  88 CALM      30.08S
IDAHO FALLS    CLOUDY    47  45  93 N3        29.96R
SALMON         CLOUDY    48  45  87 CALM      29.93S
BOISE          PTCLDY    54  47  77 SE5       29.85F
SPOKANE        MOCLDY    64  51  62 W7        29.84S
$$

REGIONAL REPORTS...ALBERTA

CITY           SKY/WX    TMP DP  RH WIND       PRES   REMARKS
EDMONTON       CLEAR     46  28  49 SE3       29.95S
CALGARY        CLEAR     43  28  56 VRB2      29.98S
LETHBRIDGE     CLEAR     41  34  75 SE8       29.96S
MEDICINE HAT   CLEAR     50  28  43 SE7       29.99S
$$

REGIONAL REPORTS...SASKATCHEWAN

CITY           SKY/WX    TMP DP  RH WIND       PRES   REMARKS
SWIFT CURRENT  CLEAR     46  30  53 S12       30.07S
SASKATOON      CLEAR     50  34  53 SW7       30.08R
$$


USA.gov is the U.S. government's official web portal to all federal, state and local government web resources and services.